#timestamp,LO_Frequency,Hit,Temp,Hum 
1478250015.2,286046959.5,N,0.0,0.0
1478250035.9,286046958.4,N,0.0,0.0
1478250055.7,286046959.3,N,0.0,0.0
1478250075.6,286046959.1,N,0.0,0.0
1478250095.4,286046956.6,N,0.0,0.0
1478250115.2,286046958.7,N,0.0,0.0
1478250135.1,286046959.5,N,0.0,0.0
1478250136.0,286046959.5,N,0.0,0.0
1478250155.8,286046956.9,N,0.0,0.0
1478250175.6,286046955.4,N,0.0,0.0
1478250195.5,286046956.7,N,0.0,0.0
1478250215.3,286046955.3,N,0.0,0.0
1478250235.1,286046955.1,N,0.0,0.0
1478250255.9,286046955.5,N,0.0,0.0
1478250275.7,286046958.0,N,0.0,0.0
1478250295.6,286046956.8,N,0.0,0.0
1478250315.4,286046959.2,N,0.0,0.0
1478250335.2,286046958.7,N,0.0,0.0
1478250355.1,286046956.7,N,0.0,0.0
1478250356.0,286046956.7,N,0.0,0.0
1478250375.8,286046957.6,N,0.0,0.0
1478250395.6,286046956.1,N,0.0,0.0
1478250415.5,286046955.5,N,0.0,0.0
1478250435.3,286046958.0,N,0.0,0.0
1478250455.1,286046955.1,N,0.0,0.0
1478250475.9,286046955.3,N,0.0,0.0
1478250495.7,286046955.3,N,0.0,0.0
1478250515.5,286046958.0,N,0.0,0.0
1478250535.4,286046957.9,N,0.0,0.0
1478250555.2,286046955.1,N,0.0,0.0
1478250575.0,286046957.8,N,0.0,0.0
1478250576.0,286046957.8,N,0.0,0.0
1478250595.8,286046956.8,N,0.0,0.0
1478250615.6,286046955.2,N,0.0,0.0
1478250635.5,286046957.3,N,0.0,0.0
1478250655.3,286046955.4,N,0.0,0.0
1478250675.1,286046957.4,N,0.0,0.0
1478250695.9,286046956.6,N,0.0,0.0
1478250715.7,286046957.0,N,0.0,0.0
1478250735.5,286046961.1,N,0.0,0.0
1478250755.4,286046956.7,N,0.0,0.0
1478250775.2,286046956.7,N,0.0,0.0
1478250795.0,286046958.0,N,0.0,0.0
1478250795.9,286046958.0,N,0.0,0.0
1478250815.8,286046955.5,N,0.0,0.0
1478250835.6,286046956.0,N,0.0,0.0
1478250855.4,286046959.1,N,0.0,0.0
1478250875.3,286046959.0,N,0.0,0.0
1478250895.1,286046955.6,N,0.0,0.0
1478250915.9,286046956.0,N,0.0,0.0
1478250935.7,286046955.6,N,0.0,0.0
1478250955.5,286046953.7,N,0.0,0.0
1478250975.4,286046953.8,N,0.0,0.0
1478250995.2,286046956.1,N,0.0,0.0
1478251015.0,286046955.2,N,0.0,0.0
1478251015.9,286046955.2,N,0.0,0.0
1478251035.8,286046955.2,N,0.0,0.0
1478251055.6,286046956.2,N,0.0,0.0
1478251075.4,286046955.9,N,0.0,0.0
1478251095.3,286046955.9,N,0.0,0.0
1478251115.1,286046955.7,N,0.0,0.0
1478251135.8,286046954.2,N,0.0,0.0
1478251155.7,286046954.3,N,0.0,0.0
1478251175.5,286046950.7,N,0.0,0.0
1478251195.3,286046952.7,N,0.0,0.0
1478251215.2,286046952.3,N,0.0,0.0
1478251235.0,286046952.4,N,0.0,0.0
1478251235.9,286046952.4,N,0.0,0.0
1478251255.8,286046953.8,N,0.0,0.0
1478251275.6,286046953.5,N,0.0,0.0
1478251295.4,286046954.4,N,0.0,0.0
1478251315.3,286046952.0,N,0.0,0.0
1478251335.1,286046954.7,N,0.0,0.0
1478251336.0,286046954.7,N,0.0,0.0
1478251355.8,286046954.7,N,0.0,0.0
1478251375.7,286046952.7,N,0.0,0.0
1478251395.5,286046952.3,N,0.0,0.0
1478251415.3,286046952.0,N,0.0,0.0
1478251435.2,286046952.3,N,0.0,0.0
1478251455.0,286046950.8,N,0.0,0.0
1478251455.9,286046950.8,N,0.0,0.0
1478251475.8,286046952.7,N,0.0,0.0
1478251495.6,286046952.8,N,0.0,0.0
1478251515.4,286046952.0,N,0.0,0.0
1478251535.3,286046952.4,N,0.0,0.0
1478251555.1,286046951.9,N,0.0,0.0
1478251556.0,286046951.9,N,0.0,0.0
1478251575.8,286046956.3,N,0.0,0.0
1478251595.7,286046956.4,N,0.0,0.0
1478251615.5,286046954.7,N,0.0,0.0
1478251635.3,286046951.7,N,0.0,0.0
1478251655.2,286046955.9,N,0.0,0.0
1478251675.0,286046954.6,N,0.0,0.0
1478251675.9,286046954.6,N,0.0,0.0
1478251695.7,286046955.5,N,0.0,0.0
1478251715.6,286046951.8,N,0.0,0.0
1478251735.4,286046952.2,N,0.0,0.0
1478251755.3,286046950.1,N,0.0,0.0
1478251775.1,286046948.9,N,0.0,0.0
1478251776.0,286046948.9,N,0.0,0.0
1478251795.8,286046950.7,N,0.0,0.0
1478251815.7,286046950.8,N,0.0,0.0
1478251835.5,286046951.5,N,0.0,0.0
1478251855.3,286046952.9,N,0.0,0.0
1478251875.2,286046952.6,N,0.0,0.0
1478251895.9,286046953.0,N,0.0,0.0
1478251915.7,286046952.1,N,0.0,0.0
1478251935.6,286046952.9,N,0.0,0.0
1478251955.4,286046953.2,N,0.0,0.0
1478251975.2,286046949.1,N,0.0,0.0
1478251995.1,286046953.1,N,0.0,0.0
1478251996.0,286046953.1,N,0.0,0.0
1478252015.8,286046952.6,N,0.0,0.0
1478252035.7,286046951.0,N,0.0,0.0
1478252055.5,286046953.1,N,0.0,0.0
1478252075.3,286046951.3,N,0.0,0.0
1478252095.2,286046947.4,N,0.0,0.0
1478252115.9,286046951.6,N,0.0,0.0
1478252135.7,286046947.5,N,0.0,0.0
1478252155.6,286046949.2,N,0.0,0.0
1478252175.4,286046949.2,N,0.0,0.0
1478252195.2,286046951.5,N,0.0,0.0
1478252215.1,286046949.4,N,0.0,0.0
1478252216.0,286046949.4,N,0.0,0.0
1478252235.8,286046950.3,N,0.0,0.0
1478252255.6,286046951.2,N,0.0,0.0
1478252275.5,286046949.2,N,0.0,0.0
1478252295.3,286046949.1,N,0.0,0.0
1478252315.1,286046948.6,N,0.0,0.0
1478252335.9,286046953.1,N,0.0,0.0
1478252355.7,286046948.6,N,0.0,0.0
1478252375.6,286046951.5,N,0.0,0.0
1478252395.4,286046950.8,N,0.0,0.0
1478252415.2,286046951.3,N,0.0,0.0
1478252435.1,286046950.1,N,0.0,0.0
1478252436.0,286046950.1,N,0.0,0.0
1478252455.8,286046954.7,N,0.0,0.0
1478252475.6,286046954.3,N,0.0,0.0
1478252495.5,286046950.1,N,0.0,0.0
1478252515.3,286046946.9,N,0.0,0.0
1478252535.1,286046949.3,N,0.0,0.0
1478252555.9,286046948.9,N,0.0,0.0
1478252575.7,286046949.1,N,0.0,0.0
1478252595.5,286046949.1,N,0.0,0.0
1478252615.4,286046951.1,N,0.0,0.0
1478252635.2,286046949.3,N,0.0,0.0
1478252655.1,286046948.5,N,0.0,0.0
1478252656.0,286046948.5,N,0.0,0.0
1478252675.8,286046950.3,N,0.0,0.0
1478252695.6,286046950.3,N,0.0,0.0
1478252715.5,286046951.3,N,0.0,0.0
1478252735.3,286046953.0,N,0.0,0.0
1478252755.1,286046950.6,N,0.0,0.0
1478252775.9,286046950.7,N,0.0,0.0
1478252795.7,286046950.6,N,0.0,0.0
1478252815.5,286046951.1,N,0.0,0.0
1478252835.4,286046961.0,N,0.0,0.0
1478252855.2,286046945.4,N,0.0,0.0
1478252875.0,286046959.2,N,0.0,0.0
1478252875.9,286046959.2,N,0.0,0.0
1478252895.8,286046950.3,N,0.0,0.0
1478252915.6,286046951.3,N,0.0,0.0
1478252935.5,286046951.8,N,0.0,0.0
1478252955.3,286046949.5,N,0.0,0.0
1478252975.1,286046946.0,N,0.0,0.0
1478252995.9,286046949.5,N,0.0,0.0
1478253015.7,286046955.7,N,0.0,0.0
1478253035.5,286046950.7,N,0.0,0.0
1478253055.4,286046952.0,N,0.0,0.0
1478253075.2,286046953.5,N,0.0,0.0
1478253095.0,286046952.7,N,0.0,0.0
1478253095.9,286046952.7,N,0.0,0.0
1478253115.8,286046950.3,N,0.0,0.0
1478253135.6,286046948.9,N,0.0,0.0
1478253155.4,286046951.6,N,0.0,0.0
1478253175.3,286046953.0,N,0.0,0.0
1478253195.1,286046952.8,N,0.0,0.0
1478253215.8,286046952.9,N,0.0,0.0
1478253235.7,286046953.3,N,0.0,0.0
1478253255.5,286046953.2,N,0.0,0.0
1478253275.4,286046948.6,N,0.0,0.0
1478253295.2,286046950.3,N,0.0,0.0
1478253315.0,286046951.9,N,0.0,0.0
1478253315.9,286046951.9,N,0.0,0.0
1478253335.8,286046954.2,N,0.0,0.0
1478253355.6,286046956.4,N,0.0,0.0
1478253375.4,286046956.2,N,0.0,0.0
1478253395.3,286046954.6,N,0.0,0.0
1478253415.1,286046956.3,N,0.0,0.0
1478253435.8,286046954.3,N,0.0,0.0
1478253455.7,286046952.1,N,0.0,0.0
1478253475.5,286046953.2,N,0.0,0.0
1478253495.3,286046951.7,N,0.0,0.0
1478253515.2,286046954.2,N,0.0,0.0
1478253535.0,286046951.9,N,0.0,0.0
1478253535.9,286046951.9,N,0.0,0.0
1478253555.8,286046954.4,N,0.0,0.0
1478253575.6,286046954.4,N,0.0,0.0
1478253595.4,286046953.5,N,0.0,0.0
